Flag for U.S.A. Weather past 2 weeks in Scottsdale, Arizona, U.S.A.

Now
98 °F

Sunny.


Feels Like: 98 °F
Forecast: 81 / 97 °F
Wind: 8 mph from West

Location: Scottsdale Airport

Current Time: Jul 29, 2015 at 5:41:22 PM

Latest Report: Jul 29, 2015 at 4:53 PM


Visibility: 10 mi

Pressure: 29.82 "Hg

Humidity: 28%

Dew point: 60 °F

Location of ScottsdaleLocation

Historic Weather in Scottsdale — Graph

°F

Scottsdale temperature yesterday

Maximum temperature yesterday: 103 °F (at 2:53 PM)
Minimum temperature yesterday: 88 °F (at 4:53 AM)
Average temperature yesterday: 94 °F

Past Weeks' High & Low Weather Summary

 TemperatureHumidityPressure
High106 °F (Jul 25, 3:53 PM)85% (Jul 18, 10:53 PM)30.02 "Hg (Jul 18, 10:53 PM)
Low74 °F (Jul 18, 10:53 PM)6% (Jul 25, 3:53 PM)29.62 "Hg (Jul 14, 5:53 PM)
Average92 °F29%29.81 "Hg
* Reported Jul 14 3:53 PM — Jul 29 3:53 PM, Scottsdale, Weather by CustomWeather, © 2015

Note: Actual official high and low records may vary slightly from our data, if they occured in-between our weather recording intervals... More about our weather records

Advertising

Scottsdale weather history for previous 24 hours

 ConditionsComfort  
Time TempWeatherWind HumidityBarometerVisibility
3:53 PM
Wed, Jul 29
98 °FSunny.9 mph28%29.84 "Hg10 mi
2:53 PM96 °FSunny.9 mph32%29.86 "Hg10 mi
1:53 PM95 °FSunny.9 mph35%29.89 "Hg10 mi
12:53 PM93 °FSunny.7 mph36%29.91 "Hg10 mi
11:53 AM92 °FSunny.No wind36%29.93 "Hg10 mi
10:53 AM90 °FPassing clouds.No wind38%29.93 "Hg10 mi
9:53 AM89 °FPartly sunny.3 mph41%29.93 "Hg10 mi
8:53 AM88 °FPassing clouds.3 mph40%29.91 "Hg10 mi
7:53 AM86 °FSunny.No wind43%29.91 "Hg10 mi
6:53 AM86 °FSunny.No wind43%29.89 "Hg10 mi
5:53 AM86 °FSunny.No wind42%29.88 "Hg8 mi
4:53 AM86 °FClear.No wind42%29.86 "Hg10 mi
3:53 AM85 °FClear.No wind43%29.86 "Hg10 mi
2:53 AM86 °FClear.No wind40%29.86 "Hg10 mi
1:53 AM87 °FClear.6 mph40%29.85 "Hg10 mi
12:53 AM87 °FClear.6 mph40%29.86 "Hg10 mi
11:53 PM
Tue, Jul 28
88 °FPassing clouds.10 mph38%29.86 "Hg10 mi
10:53 PM90 °FPassing clouds.10 mph37%29.86 "Hg9 mi
9:53 PM93 °FPassing clouds.15 mph36%29.81 "Hg8 mi
8:53 PM99 °FClear.3 mph22%29.75 "Hg10 mi
7:53 PM100 °FClear.6 mph21%29.73 "Hg10 mi
6:53 PM102 °FSunny.7 mph18%29.70 "Hg10 mi
5:53 PM102 °FSunny.6 mph18%29.69 "Hg10 mi
Weather by CustomWeather, © 2015

See weather overviewHow to use our weather pages